| time (UTC) | temp F | wind direction | speed knots | gust knots | rain 1hr in | rain 24hr in | rain mn in | humidity % | barometer mb |
| 20260503015524 | 38 | 340 | 5.2 | 7.8 | 0.00 | 0.00 | 0.00 | 95 | 1018.5 |
| 20260503014524 | 38 | 352 | 5.2 | 7.8 | 0.00 | 0.00 | 0.00 | 95 | 1018.7 |
| 20260503013524 | 37 | 345 | 5.2 | 7.8 | 0.00 | 0.00 | 0.00 | 95 | 1018.7 |
| 20260503012524 | 38 | 351 | 5.2 | 7.8 | 0.00 | 0.00 | 0.00 | 95 | 1018.8 |
| 20260503011525 | 38 | 357 | 5.2 | 7.8 | 0.00 | 0.00 | 0.00 | 95 | 1018.8 |
| 20260503010524 | 37 | 349 | 5.2 | 7.8 | 0.00 | 0.00 | 0.00 | 95 | 1018.8 |
| 20260503005524 | 38 | 352 | 5.2 | 7.8 | 0.00 | 0.00 | 0.00 | 94 | 1018.8 |
| 20260503004524 | 38 | 351 | 5.2 | 7.8 | 0.00 | 0.00 | 0.00 | 94 | 1018.8 |
| 20260503003536 | 38 | 350 | 5.2 | 7.8 | 0.00 | 0.00 | 0.00 | 94 | 1018.9 |
| 20260503002544 | 38 | 356 | 4.3 | 6.1 | 0.00 | 0.00 | 0.00 | 93 | 1019.0 |
| 20260503001524 | 39 | 341 | 4.3 | 7.8 | 0.00 | 0.00 | 0.00 | 92 | 1018.9 |
| 20260503000524 | 39 | 345 | 5.2 | 7.8 | 0.00 | 0.00 | 0.00 | 92 | 1019.0 |
| 20260502235544 | 39 | 356 | 5.2 | 6.1 | 0.00 | 0.00 | 0.00 | 91 | 1019.0 |
| 20260502234524 | 39 | 351 | 5.2 | 7.8 | 0.00 | 0.00 | 0.00 | 90 | 1019.1 |
| 20260502233525 | 39 | 350 | 4.3 | 6.1 | 0.00 | 0.00 | 0.00 | 89 | 1019.2 |
| 20260502232536 | 39 | 350 | 4.3 | 6.1 | 0.00 | 0.00 | 0.00 | 89 | 1019.2 |
| 20260502231524 | 40 | 343 | 4.3 | 6.1 | 0.00 | 0.00 | 0.00 | 88 | 1019.2 |
| 20260502230536 | 40 | 343 | 4.3 | 6.1 | 0.00 | 0.00 | 0.00 | 89 | 1019.3 |
| 20260502225617 | 39 | 339 | 3.5 | 6.1 | 0.00 | 0.00 | 0.00 | 90 | 1019.4 |
| 20260502224536 | 39 | 342 | 3.5 | 6.1 | 0.00 | 0.00 | 0.00 | 91 | 1019.5 |
| 20260502223548 | 40 | 343 | 4.3 | 6.1 | 0.00 | 0.00 | 0.00 | 91 | 1019.6 |
| 20260502222524 | 40 | 336 | 4.3 | 6.1 | 0.00 | 0.00 | 0.00 | 92 | 1019.7 |
| 20260502221524 | 39 | 346 | 4.3 | 6.1 | 0.00 | 0.00 | 0.00 | 92 | 1019.8 |
| 20260502220545 | 40 | 350 | 4.3 | 7.8 | 0.00 | 0.00 | 0.00 | 91 | 1019.9 |
| 20260502215536 | 40 | 354 | 4.3 | 6.1 | 0.00 | 0.00 | 0.00 | 91 | 1020.1 |
| 20260502214537 | 40 | 344 | 3.5 | 6.1 | 0.00 | 0.00 | 0.00 | 91 | 1020.1 |
| 20260502213544 | 40 | 344 | 4.3 | 6.1 | 0.00 | 0.00 | 0.00 | 91 | 1020.1 |
| 20260502212604 | 39 | 335 | 4.3 | 6.1 | 0.00 | 0.00 | 0.00 | 92 | 1020.2 |
| 20260502211536 | 39 | 349 | 3.5 | 6.1 | 0.00 | 0.00 | 0.00 | 92 | 1020.2 |
| 20260502210524 | 39 | 338 | 2.6 | 6.1 | 0.00 | 0.00 | 0.00 | 92 | 1020.2 |
| 20260502205536 | 39 | 349 | 3.5 | 6.1 | 0.00 | 0.00 | 0.00 | 92 | 1020.2 |
| 20260502204529 | 39 | 329 | 3.5 | 6.1 | 0.00 | 0.00 | 0.00 | 92 | 1020.2 |
| 20260502203525 | 39 | 334 | 3.5 | 3.5 | 0.00 | 0.00 | 0.00 | 92 | 1020.3 |
| 20260502202544 | 39 | 338 | 2.6 | 6.1 | 0.00 | 0.00 | 0.00 | 92 | 1020.3 |
| 20260502201524 | 39 | 340 | 3.5 | 3.5 | 0.00 | 0.00 | 0.00 | 92 | 1020.4 |
| 20260502200544 | 39 | 338 | 1.7 | 3.5 | 0.00 | 0.00 | 0.00 | 92 | 1020.4 |
| 20260502195524 | 39 | 7 | 2.6 | 3.5 | 0.00 | 0.00 | 0.00 | 91 | 1020.5 |
| 20260502194524 | 39 | 21 | 3.5 | 3.5 | 0.00 | 0.00 | 0.00 | 90 | 1020.6 |
| 20260502193536 | 40 | 24 | 3.5 | 6.1 | 0.00 | 0.00 | 0.00 | 89 | 1020.5 |
| 20260502192524 | 40 | 25 | 2.6 | 3.5 | 0.00 | 0.00 | 0.00 | 89 | 1020.4 |
| 20260502191544 | 40 | 2 | 2.6 | 3.5 | 0.00 | 0.00 | 0.00 | 88 | 1020.4 |
| 20260502190524 | 40 | 15 | 1.7 | 3.5 | 0.00 | 0.00 | 0.00 | 89 | 1020.3 |
| 20260502185524 | 40 | 19 | 1.7 | 3.5 | 0.00 | 0.00 | 0.00 | 89 | 1020.3 |
| 20260502184524 | 40 | 23 | 1.7 | 3.5 | 0.00 | 0.00 | 0.00 | 89 | 1020.3 |
| 20260502183544 | 40 | 23 | 2.6 | 3.5 | 0.00 | 0.00 | 0.00 | 88 | 1020.3 |
| 20260502182604 | 42 | 26 | 3.5 | 3.5 | 0.00 | 0.00 | 0.00 | 84 | 1020.2 |
| 20260502181524 | 43 | 48 | 4.3 | 6.1 | 0.00 | 0.00 | 0.00 | 82 | 1020.2 |
| 20260502180536 | 43 | 51 | 3.5 | 3.5 | 0.00 | 0.00 | 0.00 | 81 | 1020.1 |
| 20260502163524 | 46 | 23 | 3.5 | 3.5 | 0.00 | 0.00 | 0.00 | 75 | 1020.0 |
| 20260502162524 | 46 | 67 | 1.7 | 3.5 | 0.00 | 0.00 | 0.00 | 77 | 1019.9 |
| 20260502161536 | 46 | 49 | 9.6 | 14.8 | 0.00 | 0.00 | 0.00 | 74 | 1020.0 |
| 20260502160536 | 47 | 20 | 8.7 | 13.0 | 0.00 | 0.00 | 0.00 | 71 | 1019.9 |
| 20260502151536 | 49 | 45 | 6.1 | 9.6 | 0.00 | 0.00 | 0.00 | 64 | 1019.9 |
| 20260502150524 | 50 | 54 | 7.0 | 9.6 | 0.00 | 0.00 | 0.00 | 60 | 1019.9 |
| 20260502130524 | 52 | 36 | 6.1 | 7.8 | 0.00 | 0.03 | 0.00 | 53 | 1020.2 |
| 20260502123524 | 52 | 63 | 5.2 | 9.6 | 0.00 | 0.03 | 0.00 | 51 | 1020.2 |
| 20260502122524 | 52 | 58 | 4.3 | 7.8 | 0.00 | 0.03 | 0.00 | 51 | 1020.2 |
| 20260502121524 | 53 | 72 | 5.2 | 7.8 | 0.00 | 0.03 | 0.00 | 50 | 1020.2 |
| 20260502120524 | 53 | 29 | 5.2 | 7.8 | 0.00 | 0.03 | 0.00 | 49 | 1020.4 |
| 20260502115524 | 54 | 47 | 6.1 | 9.6 | 0.00 | 0.03 | 0.00 | 48 | 1020.4 |
| 20260502114605 | 53 | 9 | 6.1 | 9.6 | 0.00 | 0.03 | 0.00 | 50 | 1020.5 |
| 20260502113524 | 52 | 37 | 6.1 | 7.8 | 0.00 | 0.03 | 0.00 | 49 | 1020.6 |
| 20260502112524 | 53 | 51 | 6.1 | 9.6 | 0.00 | 0.03 | 0.00 | 50 | 1020.6 |
| 20260502111536 | 53 | 27 | 7.8 | 14.8 | 0.00 | 0.03 | 0.00 | 49 | 1020.6 |
| 20260502110548 | 53 | 45 | 7.0 | 13.0 | 0.00 | 0.03 | 0.00 | 50 | 1020.7 |
| 20260502105524 | 53 | 72 | 6.1 | 9.6 | 0.00 | 0.03 | 0.00 | 51 | 1020.7 |
| 20260502104544 | 53 | 26 | 7.8 | 13.0 | 0.00 | 0.03 | 0.00 | 51 | 1020.8 |
| 20260502103524 | 52 | 23 | 7.8 | 13.0 | 0.00 | 0.03 | 0.00 | 54 | 1020.9 |
| 20260502102544 | 52 | 38 | 8.7 | 13.0 | 0.00 | 0.03 | 0.00 | 55 | 1021.0 |
| 20260502101524 | 52 | 27 | 7.8 | 14.8 | 0.00 | 0.03 | 0.00 | 55 | 1021.0 |
| 20260502100536 | 52 | 35 | 8.7 | 13.0 | 0.00 | 0.03 | 0.00 | 53 | 1021.0 |
| 20260502091524 | 53 | 57 | 7.0 | 9.6 | 0.00 | 0.03 | 0.00 | 47 | 1021.2 |
| 20260502090556 | 53 | 357 | 7.8 | 13.0 | 0.00 | 0.03 | 0.00 | 51 | 1021.3 |
| 20260502071524 | 52 | 40 | 7.0 | 13.0 | 0.00 | 0.03 | 0.00 | 49 | 1021.5 |
| 20260502070524 | 52 | 33 | 7.8 | 13.0 | 0.00 | 0.03 | 0.00 | 49 | 1021.5 |
| 20260502065536 | 52 | 8 | 7.8 | 13.0 | 0.00 | 0.03 | 0.00 | 50 | 1021.4 |
| 20260502064524 | 51 | 15 | 7.8 | 13.0 | 0.00 | 0.03 | 0.00 | 53 | 1021.5 |
| 20260502063524 | 51 | 24 | 7.0 | 9.6 | 0.00 | 0.03 | 0.00 | 50 | 1021.5 |
| 20260502062524 | 52 | 16 | 6.1 | 9.6 | 0.00 | 0.03 | 0.00 | 54 | 1021.4 |
| 20260502061605 | 51 | 352 | 6.1 | 9.6 | 0.00 | 0.03 | 0.00 | 56 | 1021.4 |
| 20260502060524 | 51 | 358 | 6.1 | 9.6 | 0.00 | 0.03 | 0.00 | 55 | 1021.4 |
| 20260502055544 | 50 | 2 | 5.2 | 7.8 | 0.00 | 0.03 | 0.00 | 64 | 1021.4 |
| 20260502054524 | 49 | 344 | 6.1 | 7.8 | 0.00 | 0.03 | 0.00 | 64 | 1021.4 |
| 20260502053548 | 49 | 353 | 5.2 | 9.6 | 0.00 | 0.03 | 0.00 | 65 | 1021.4 |
| 20260502052536 | 48 | 352 | 6.1 | 9.6 | 0.00 | 0.03 | 0.00 | 67 | 1021.4 |
| 20260502051556 | 47 | 338 | 5.2 | 9.6 | 0.00 | 0.03 | 0.00 | 68 | 1021.4 |
| 20260502050524 | 46 | 340 | 5.2 | 7.8 | 0.00 | 0.03 | 0.00 | 69 | 1021.4 |
| 20260502045536 | 45 | 344 | 5.2 | 7.8 | 0.00 | 0.03 | 0.00 | 71 | 1021.3 |
| 20260502044524 | 44 | 335 | 4.3 | 7.8 | 0.00 | 0.03 | 0.00 | 72 | 1021.3 |
| 20260502043524 | 43 | 341 | 5.2 | 7.8 | 0.00 | 0.03 | 0.00 | 73 | 1021.3 |
| 20260502042524 | 42 | 337 | 5.2 | 7.8 | 0.00 | 0.03 | 0.00 | 75 | 1021.4 |
| 20260502041524 | 41 | 337 | 4.3 | 7.8 | 0.00 | 0.03 | 0.00 | 76 | 1021.4 |
| 20260502040536 | 40 | 327 | 4.3 | 6.1 | 0.00 | 0.03 | 0.00 | 77 | 1021.3 |
| 20260502035524 | 39 | 322 | 4.3 | 6.1 | 0.00 | 0.03 | 0.00 | 78 | 1021.3 |
| 20260502034524 | 38 | 331 | 4.3 | 7.8 | 0.00 | 0.03 | 0.00 | 79 | 1021.3 |
| 20260502033524 | 38 | 321 | 4.3 | 7.8 | 0.00 | 0.03 | 0.00 | 79 | 1021.2 |
| 20260502032605 | 37 | 325 | 4.3 | 7.8 | 0.00 | 0.03 | 0.00 | 80 | 1021.2 |
| 20260502031536 | 36 | 327 | 4.3 | 6.1 | 0.00 | 0.03 | 0.00 | 83 | 1021.2 |
| 20260502030524 | 37 | 322 | 2.6 | 3.5 | 0.00 | 0.03 | 0.00 | 83 | 1021.2 |
| 20260502025536 | 37 | 318 | 4.3 | 7.8 | 0.00 | 0.03 | 0.00 | 82 | 1021.2 |
| 20260502024536 | 37 | 322 | 2.6 | 6.1 | 0.00 | 0.03 | 0.00 | 83 | 1021.2 |
| 20260502023524 | 37 | 326 | 2.6 | 6.1 | 0.00 | 0.03 | 0.00 | 83 | 1021.2 |
| 20260502022524 | 38 | 306 | 3.5 | 6.1 | 0.00 | 0.03 | 0.00 | 82 | 1021.3 |
| 20260502021524 | 37 | 305 | 2.6 | 6.1 | 0.00 | 0.03 | 0.00 | 83 | 1021.3 |
| 20260502020536 | 38 | 314 | 3.5 | 6.1 | 0.00 | 0.03 | 0.00 | 83 | 1021.4 |